Scottsbluff, NE

5:00 AM MDT on October 16, 2019 (GMT -0600)
Heilig

Weather History for KBFF - August, 2019

Change the Weather History Date:

Monday, August 19, 2019

  Actual Average Record
Temperature  
Mean Temperature 80 °F -  
Max Temperature 100 °F 88 °F 101 °F (1898)
Min Temperature 61 °F 57 °F 42 °F (1897)
Cooling Degree Days 16    
Growing Degree Days 30 (Base 50)    
Moisture  
Dew Point 58 °F    
Average Humidity 69    
Maximum Humidity 100    
Minimum Humidity 10    
Precipitation  
Precipitation 0.00 in - - ()
Sea Level Pressure  
Sea Level Pressure 29.87 in    
Wind  
Wind Speed 6 mph (ESE)    
Max Wind Speed 12 mph    
Max Gust Speed -    
Visibility 7 miles    
Events Fog    
Averages and records for this station are not official NWS values.
T = Trace of Precipitation, MM = Missing Value Source: NWS Daily Summary

Daily Weather History Graph

Daily Weather History Graph

Search for Another Location

Airport or City:

Astronomy

Aug. 19, 2019 Rise Set
Actual Time 6:06 AM MDT 7:48 PM MDT
Civil Twilight 5:36 AM MDT 8:18 PM MDT
Nautical Twilight 5:00 AM MDT 8:54 PM MDT
Astronomical Twilight 4:22 AM MDT 9:32 PM MDT
Moon 10:07 PM MDT (8/19) 9:53 AM MDT (8/19)
Length of Visible Light 14h 41m
Length of Day
13h 42m
Waning Gibbous, 85% of the Moon is Illuminated
Aug 19
Waning Gibbous
Aug 23
Last Quarter
Aug 30
New
Sep 5
First Quarter
Sep 13
Full

Hourly Weather History & Observations

Time (MDT) Temp. Heat Index Dew Point Humidity Pressure Visibility Wind Dir Wind Speed Gust Speed Precip Events Conditions
12:53 AM 66.0 °F - 62.1 °F 87% 29.83 in 10.0 mi ESE 11.5 mph - N/A   Clear
1:53 AM 64.0 °F - 62.1 °F 93% 29.83 in 10.0 mi ESE 9.2 mph - N/A   Clear
2:53 AM 63.0 °F - 61.0 °F 93% 29.83 in 8.0 mi ESE 6.9 mph - N/A   Clear
3:50 AM 62.6 °F - 60.8 °F 94% 29.97 in 7.0 mi SE 4.6 mph - N/A   Scattered Clouds
3:53 AM 62.1 °F - 61.0 °F 96% 29.83 in 7.0 mi SE 3.5 mph - N/A   Mostly Cloudy
4:02 AM 63.0 °F - 62.1 °F 97% 29.97 in 1.8 mi SE 5.8 mph - N/A   Mostly Cloudy
4:12 AM 63.0 °F - 62.1 °F 97% 29.97 in 0.2 mi ESE 8.1 mph - N/A Fog Fog
4:25 AM 62.1 °F - 62.1 °F 100% 29.97 in 0.2 mi ESE 5.8 mph - N/A Fog Fog
4:53 AM 62.1 °F - 62.1 °F 100% 29.83 in 0.2 mi SE 5.8 mph - N/A Fog Fog
5:53 AM 61.0 °F - 61.0 °F 100% 29.85 in 0.2 mi SE 3.5 mph - N/A Fog Fog
6:53 AM 61.0 °F - 61.0 °F 100% 29.86 in 0.2 mi Calm Calm - N/A Fog Fog
7:53 AM 62.1 °F - 62.1 °F 100% 29.88 in 0.2 mi Calm Calm - N/A Fog Fog
8:18 AM 61.0 °F - 61.0 °F 100% 30.01 in 0.2 mi NW 4.6 mph - N/A Fog Fog
8:28 AM 62.1 °F - 61.0 °F 96% 30.01 in 0.5 mi Calm Calm - N/A Fog Fog
8:43 AM 62.1 °F - 61.0 °F 96% 30.00 in 2.0 mi Variable 3.5 mph - N/A   Overcast
8:53 AM 63.0 °F - 62.1 °F 97% 29.89 in 8.0 mi WNW 4.6 mph - N/A   Overcast
9:10 AM 64.0 °F - 62.1 °F 93% 30.01 in 10.0 mi NW 3.5 mph - N/A   Scattered Clouds
9:53 AM 73.0 °F - 57.9 °F 59% 29.88 in 10.0 mi WNW 6.9 mph - N/A   Clear
10:53 AM 80.1 °F 80.2 °F 55.9 °F 43% 29.88 in 10.0 mi Variable 4.6 mph - N/A   Clear
11:53 AM 88.0 °F 85.9 °F 54.0 °F 31% 29.85 in 10.0 mi WNW 9.2 mph - N/A   Clear
12:53 PM 93.9 °F - 50.0 °F 22% 29.82 in 10.0 mi WNW 9.2 mph - N/A   Clear
1:53 PM 98.1 °F - 46.0 °F 17% 29.81 in 10.0 mi WNW 6.9 mph - N/A   Clear
2:53 PM 98.1 °F - 44.1 °F 16% 29.80 in 10.0 mi NW 10.4 mph - N/A   Clear
3:53 PM 99.0 °F - 41.0 °F 14% 29.79 in 10.0 mi NW 5.8 mph - N/A   Clear
4:53 PM 98.1 °F - 42.1 °F 15% 29.79 in 10.0 mi Calm Calm - N/A   Clear
5:53 PM 96.1 °F - 46.0 °F 18% 29.78 in 10.0 mi ESE 4.6 mph - N/A   Clear
6:53 PM 91.0 °F 89.2 °F 55.9 °F 30% 29.79 in 10.0 mi ESE 3.5 mph - N/A   Clear
7:53 PM 77.0 °F - 63.0 °F 62% 29.83 in 10.0 mi East 5.8 mph - N/A   Clear
8:53 PM 75.0 °F - 62.1 °F 64% 29.86 in 10.0 mi ESE 8.1 mph - N/A   Clear
9:53 PM 75.0 °F - 60.1 °F 60% 29.85 in 10.0 mi ESE 4.6 mph - N/A   Clear
10:53 PM 72.0 °F - 63.0 °F 73% 29.85 in 10.0 mi ENE 6.9 mph - N/A   Clear
11:53 PM 72.0 °F - 64.9 °F 78% 29.84 in 10.0 mi East 4.6 mph - N/A   Clear